This is the latest recevied weather packets stored in our database for station/object LU3HGB-WX. If no packets are shown the sender has not sent any weather packets the latest 10 day(s).
| Time | Temp. | Humidity | Pressure | Rain* | Wind** | Luminosity | Snow |
|---|---|---|---|---|---|---|---|
| 1778260059 | 13.89° C | 31% | 1013 hPa | 0 mm | - | 694 W/m² | - |
| 1778259759 | 13.89° C | 27% | 1013 hPa | 0 mm | - | 698 W/m² | - |
| 1778259461 | 13.89° C | 28% | 1013 hPa | 0 mm | - | 702 W/m² | - |
| 1778259159 | 14.44° C | 30% | 1014 hPa | 0 mm | - | 705 W/m² | - |
| 1778258860 | 13.89° C | 31% | 1014 hPa | 0 mm | - | 708 W/m² | - |
| 1778258559 | 14.44° C | 28% | 1014 hPa | 0 mm | - | 711 W/m² | - |
| 1778258261 | 13.89° C | 33% | 1014 hPa | 0 mm | - | 711 W/m² | - |
| 1778257960 | 13.33° C | 32% | 1014 hPa | 0 mm | - | 712 W/m² | - |
| 1778257659 | 13.33° C | 31% | 1014 hPa | 0 mm | - | 714 W/m² | - |
| 1778257361 | 12.78° C | 30% | 1014 hPa | 0 mm | - | 716 W/m² | - |
| 1778257059 | 12.78° C | 31% | 1014 hPa | 0 mm | - | 715 W/m² | - |
| 1778256760 | 12.78° C | 31% | 1015 hPa | 0 mm | - | 714 W/m² | - |
| 1778256460 | 12.78° C | 32% | 1015 hPa | 0 mm | - | 712 W/m² | - |
| 1778256160 | 12.78° C | 32% | 1015 hPa | 0 mm | - | 711 W/m² | - |
| 1778255861 | 12.78° C | 29% | 1015 hPa | 0 mm | - | 710 W/m² | - |
| 1778255560 | 12.22° C | 30% | 1015 hPa | 0 mm | - | 704 W/m² | - |
| 1778255259 | 11.67° C | 32% | 1015 hPa | 0 mm | - | 703 W/m² | - |
| 1778254959 | 11.67° C | 30% | 1015 hPa | 0 mm | - | 700 W/m² | - |
| 1778254660 | 11.67° C | 31% | 1015 hPa | 0 mm | - | 695 W/m² | - |
| 1778254360 | 11.67° C | 31% | 1015 hPa | 0 mm | - | 691 W/m² | - |
| 1778254062 | 11.11° C | 31% | 1015 hPa | 0 mm | - | 533 W/m² | - |
| 1778253760 | 11.11° C | 30% | 1015 hPa | 0 mm | - | 659 W/m² | - |
| 1778253459 | 11.11° C | 33% | 1016 hPa | 0 mm | - | 666 W/m² | - |
| 1778253160 | 11.11° C | 34% | 1016 hPa | 0 mm | - | 556 W/m² | - |
| 1778252859 | 10.56° C | 33% | 1016 hPa | 0 mm | - | 329 W/m² | - |
* Rain latest hour (hover to see other rain measurements)
** Current wind speed in m/s (hover to see current wind gust speed)